Location: *
(37.5724°S, 58.0067°E)
Time: 11:18:35
(UTC+00:00)

Lacrosse 5 - Pass Details

Date: 25 January 2021
Orbit: 715 x 724 km, 57.0° (Epoch: 22 February)

Event Time Altitude Azimuth Distance (km) Brightness Sun altitude
Rises 20:29:46 0° 257° (WSW) 3,152 5.3 -33.6°
Reaches altitude 10° 20:33:33 10° 229° (SW) 2,237 4.8 -33.6°
Maximum altitude 20:35:55 13° 202° (SSW) 2,039 4.8 -33.6°
Drops below altitude 10° 20:38:17 10° 174° (S) 2,244 5.2 -33.5°
Sets 20:42:06 0° 146° (SE) 3,170 6.0 -33.5°
